Fallon NAS, NV

9:06 AM PDT on May 24, 2017 (GMT -0700)
Fallon Naval Air Station

Weather History for KNFL - October, 2014

Change the Weather History Date:

Wednesday, October 1, 2014

  Actual Average Record
Temperature  
Mean Temperature 55 °F -  
Max Temperature 66 °F 76 °F 95 °F (2010)
Min Temperature 37 °F 39 °F 28 °F (1950)
Degree Days  
Heating Degree Days 10    
Growing Degree Days 5 (Base 50)    
Moisture  
Dew Point 32 °F    
Average Humidity 46    
Maximum Humidity 76    
Minimum Humidity 20    
Precipitation  
Precipitation 0.00 in - - ()
Sea Level Pressure  
Sea Level Pressure 30.01 in    
Wind  
Wind Speed 5 mph (NNW)    
Max Wind Speed 10 mph    
Max Gust Speed -    
Visibility 10 miles    
Events      
Averages and records for this station are not official NWS values.
T = Trace of Precipitation, MM = Missing Value Source: NWS Daily Summary

Daily Weather History Graph

Daily Weather History Graph

Search for Another Location

Airport or City:

Trip Planner

Search our weather history database for the weather conditions in past years. The results will help you decide how hot, cold, wet, or windy it might be!

Date:

Astronomy

Oct. 01, 2014 Rise Set
Actual Time 6:51 AM PDT 6:37 PM PDT
Civil Twilight 6:24 AM PDT 7:03 PM PDT
Nautical Twilight 5:53 AM PDT 7:34 PM PDT
Astronomical Twilight 5:21 AM PDT 8:06 PM PDT
Moon 1:54 PM PDT (10/1) No Moon Set
Length of Visible Light 12h 39m
Length of Day
11h 46m
Waxing Crescent, 50% of the Moon is Illuminated
Oct 1
Waxing Crescent
Oct 1
First Quarter
Oct 8
Full
Oct 15
Last Quarter
Oct 23
New

Hourly Weather History & Observations

Time (PDT) Temp. Windchill Dew Point Humidity Pressure Visibility Wind Dir Wind Speed Gust Speed Precip Events Conditions
12:56 AM 50.0 °F - 30.0 °F 46% 29.97 in 10.0 mi NNW 9.2 mph - N/A   Clear
1:56 AM 48.0 °F - 30.0 °F 50% 29.99 in 10.0 mi Variable 3.5 mph - N/A   Clear
2:56 AM 46.0 °F 43.1 °F 30.9 °F 56% 29.99 in 10.0 mi West 5.8 mph - N/A   Clear
3:56 AM 45.0 °F - 30.9 °F 58% 30.00 in 10.0 mi Calm Calm - N/A   Clear
4:56 AM 43.0 °F - 30.9 °F 62% 30.02 in 10.0 mi Calm Calm - N/A   Clear
5:56 AM 37.0 °F - 30.0 °F 76% 30.04 in 10.0 mi Calm Calm - N/A   Clear
6:56 AM 39.9 °F 37.8 °F 30.9 °F 70% 30.05 in 10.0 mi WNW 3.5 mph - N/A   Clear
7:56 AM 51.1 °F - 43.0 °F 74% 29.94 in 10.0 mi South 4.6 mph - N/A   Scattered Clouds
8:56 AM 50.0 °F - 32.0 °F 50% 30.09 in 10.0 mi NNE 4.6 mph - N/A   Clear
9:56 AM 55.9 °F - 30.9 °F 39% 30.10 in 10.0 mi North 6.9 mph - N/A   Partly Cloudy
10:56 AM 68.0 °F - 44.1 °F 42% 29.93 in 10.0 mi NNW 8.1 mph - N/A   Mostly Cloudy
11:56 AM 60.1 °F - 30.0 °F 32% 30.09 in 10.0 mi North 6.9 mph - N/A   Partly Cloudy
12:56 PM 70.0 °F - 43.0 °F 38% 29.90 in 10.0 mi Calm Calm - N/A   Mostly Cloudy
1:56 PM 72.0 °F - 41.0 °F 33% 29.88 in 10.0 mi Variable 4.6 mph - N/A   Mostly Cloudy
2:56 PM 66.0 °F - 24.1 °F 20% 30.05 in 10.0 mi NNE 6.9 mph - N/A   Clear
3:56 PM 73.9 °F - 37.9 °F 27% 29.86 in 10.0 mi NW 10.4 mph - N/A   Scattered Clouds
4:56 PM 72.0 °F - 33.1 °F 24% 29.85 in 10.0 mi North 10.4 mph - N/A   Scattered Clouds
5:56 PM 64.0 °F - 23.0 °F 21% 30.04 in 10.0 mi NNW 5.8 mph - N/A   Partly Cloudy
6:56 PM 55.9 °F - 27.0 °F 33% 30.05 in 10.0 mi North 6.9 mph - N/A   Partly Cloudy
7:56 PM 51.1 °F - 27.0 °F 39% 30.07 in 10.0 mi North 5.8 mph - N/A   Clear
8:56 PM 46.0 °F - 28.9 °F 51% 30.08 in 10.0 mi Calm Calm - N/A   Clear
9:56 PM 44.1 °F 41.5 °F 28.9 °F 55% 30.09 in 10.0 mi SSW 4.6 mph - N/A   Clear
10:56 PM 45.0 °F - 30.9 °F 58% 30.10 in 10.0 mi Calm Calm - N/A   Clear
11:56 PM 42.1 °F - 28.9 °F 60% 30.10 in 10.0 mi Calm Calm - N/A   Clear